Flag for Germany Weather past 2 weeks in Krefeld, North Rhine-Westphalia, Germany

Now
59 °F

Passing clouds.


Feels Like: 56 °F
Forecast: 40 / 64 °F
Wind: 14 mph from Northwest

Location: Monchengladbach Airport

Current Time: May 26, 2015 at 5:00:25 PM

Latest Report: May 26, 2015 at 4:20 PM


Visibility: N/A

Pressure: 30.15 "Hg

Humidity: 55%

Dew point: 43 °F

Location of KrefeldLocation

Historic Weather in Krefeld — Graph

°F

Krefeld temperature yesterday

Maximum temperature yesterday: 61 °F (at 3:20 PM)
Minimum temperature yesterday: 52 °F (at 11:20 AM)
Average temperature yesterday: 57 °F

Past Weeks' High & Low Weather Summary

 TemperatureHumidityPressure
High81 °F (May 11, 4:50 PM)100% (May 16, 2:50 PM)30.33 "Hg (May 16, 2:50 PM)
Low41 °F (May 21, 6:20 AM)30% (May 11, 4:50 PM)29.65 "Hg (May 18, 6:20 PM)
Average60 °F58%30.06 "Hg
* Reported May 11 3:20 PM — May 26 3:50 PM, Krefeld, Weather by CustomWeather, © 2015

Note: Actual official high and low records may vary slightly from our data, if they occured in-between our weather recording intervals... More about our weather records

Advertising

Krefeld weather history for previous 24 hours

 ConditionsComfort  
Time TempWeatherWind HumidityBarometerVisibility
3:50 PM
Tue, May 26
59 °FPassing clouds.14 mph51%30.15 "HgN/A
3:20 PM61 °FPassing clouds.10 mph48%30.12 "HgN/A
2:50 PM59 °FPassing clouds.9 mph51%30.15 "HgN/A
2:20 PM55 °FPassing clouds.7 mph59%30.15 "HgN/A
1:50 PM54 °FPassing clouds.10 mph63%30.15 "HgN/A
1:20 PM55 °FPartly sunny.10 mph55%30.12 "HgN/A
12:50 PM57 °FBroken clouds.8 mph55%30.12 "HgN/A
12:20 PM57 °FPartly sunny.10 mph51%30.12 "HgN/A
11:50 AM55 °FBroken clouds.9 mph59%30.12 "HgN/A
11:20 AM54 °FBroken clouds.10 mph54%30.12 "HgN/A
10:50 AM55 °FBroken clouds.9 mph55%30.12 "HgN/A
10:20 AM55 °FPartly sunny.12 mph59%30.12 "HgN/A
9:50 AM54 °FPassing clouds.9 mph63%30.12 "HgN/A
9:20 AM52 °FSunny.10 mph67%30.12 "Hg10 mi
8:50 AM52 °FPassing clouds.8 mph72%30.12 "HgN/A
8:20 AM52 °FSunny.8 mph77%30.12 "Hg10 mi
7:50 AM50 °FSunny.7 mph82%30.09 "Hg10 mi
7:50 PM
Mon, May 25
59 °FPassing clouds.7 mph55%29.98 "HgN/A
7:20 PM59 °FPassing clouds.8 mph59%29.98 "HgN/A
6:50 PM59 °FPartly cloudy.10 mph59%29.98 "HgN/A
6:20 PM61 °FPartly cloudy.8 mph55%29.98 "HgN/A
5:50 PM59 °FPassing clouds.10 mph55%29.98 "HgN/A
5:20 PM61 °FPassing clouds.12 mph55%29.98 "HgN/A
Weather by CustomWeather, © 2015

See weather overviewHow to use our weather pages